Location: Rounton
(54.4000°N, 1.3500°W)
Time: 12:07:26
(UTC+00:00)

Envisat - Pass Details

Date: 25 September 2023
Orbit: 762 x 764 km, 98.3° (Epoch: 07 December)

Event Time Altitude Azimuth Distance (km) Brightness Sun altitude
Rises 05:24:25 0° 13° (NNE) 3,247 6.7 -13.9°
Reaches altitude 10° 05:26:44 10° 11° (NNE) 2,316 5.9 -13.6°
Maximum altitude 05:31:48 67° 291° (WNW) 832 3.0 -12.9°
Drops below altitude 10° 05:36:49 10° 209° (SSW) 2,300 5.1 -12.2°
Enters shadow 05:37:54 - 208° (SSW) 2,728 5.5 -12.0°
